Location: Novokuznetsk
(53.7500°N, 87.1000°E)
Time: 02:28:12
(UTC+06:00)

ISS - Pass Details

Date: 22 July 2018
Orbit: 402 x 408 km, 51.6° (Epoch: 20 July)

Event Time Altitude Azimuth Distance (km) Brightness Sun altitude
Rises 21:24:27 0° 226° (SW) 2,314 0.0 -7.2°
Reaches altitude 10° 21:26:41 10° 214° (SW) 1,458 -1.2 -7.4°
Maximum altitude 21:29:32 27° 154° (SSE) 806 -2.9 -7.6°
Drops below altitude 10° 21:32:23 10° 94° (E) 1,467 -1.4 -7.9°
Sets 21:34:38 0° 82° (E) 2,331 -0.3 -8.1°
